Regional Weather Roundup
Issued by NWS

Home | Current Version | Previous Version | Graphics & Text | Print | Product List | Glossary On
Versions: 1 2 3 4 5 6 7 8 9 10 11 12 13 14 15 16 17 18 19 20 21 22 23 24 25 26 27 28 29 30 31 32 33 34 35 36 37 38 39 40 41 42 43 44 45 46 47 48 49 50
000
ASUS43 KMPX 211110
RWRMN
WEATHER ROUNDUP FOR MINNESOTA
NATIONAL WEATHER SERVICE TWIN CITIES/CHANHASSEN MN
600 AM CDT FRI JUL 21 2017


NOTE: "FAIR" INDICATES FEW OR NO CLOUDS BELOW 12,000 FEET WITH NO
SIGNIFICANT WEATHER AND/OR OBSTRUCTIONS TO VISIBILITY. N/A MEANS
CURRENT SKY AND/OR WEATHER CONDITIONS ARE NOT AVAILABLE.

MNZ060>063-068>070-211200-
   Twin Cities Metro

CITY           SKY/WX    TMP DP  RH WIND       PRES   REMARKS
TWIN CITIES    PTCLDY    71  67  87 SE12      29.89F
ST PAUL        CLEAR     68  68 100 SE7       29.91F
CRYSTAL        CLEAR     67  64  90 SE5       29.89F
BLAINE         CLEAR     68  68 100 E3        29.90F FOG
LAKEVILLE      DRZL/FOG  63  63 100 E3        29.89F VSB<1/4
EDEN PRAIRIE   CLEAR     69  67  93 E8        29.88F FOG
SOUTH ST PAUL  CLEAR     68  67  99 CALM      29.91F
LAKE ELMO      FAIR      64  64 100 CALM      29.93S FOG
$$
MNZ001>005-007-008-013>017-022>024-027-028-211200-
   Northwest Minnesota

CITY           SKY/WX    TMP DP  RH WIND       PRES   REMARKS
BEMIDJI        CLOUDY    65  61  84 E6        29.92S
HALLOCK        PTCLDY    70  61  73 E8        29.84S
ROSEAU         CLOUDY    64  57  77 E6        29.91S
WARROAD        PTCLDY    64  59  82 S7        29.92F
THIEF RVR FALL MOCLDY    66  60  81 E9        29.88F
CROOKSTON      CLOUDY    70  64  83 SE10      29.84F
FOSSTON          N/A     63  57  82 CALM      29.90S
DETROIT LAKES  CLOUDY    72  66  83 SE7       29.89S
MOORHEAD       CLOUDY    73  68  83 S8        29.84F
PARK RAPIDS    CLOUDY    70  65  84 SE8       29.90F
MAHNOMEN       FAIR      70  66  85 SE7       29.87F
$$
MNZ006-009>011-018-025>026-211200-
   North Central Minnesota

CITY           SKY/WX    TMP DP  RH WIND       PRES   REMARKS
BAUDETTE       PTCLDY    60  56  86 SE7       29.93F
FLAG ISLAND    PTCLDY    66  63  88 SE3       29.92S HAZE
INTL FALLS     CLOUDY    57  55  93 S3        29.95S
WASKISH        MOCLDY    61  54  77 E5        29.94F
BIG FORK       CLOUDY    61  57  88 CALM      29.96S
LONGVILLE      MOCLDY    63  63 100 CALM      29.93S FOG
GRAND RAPIDS   MOCLDY    61  60  97 E3        29.96F FOG
CRANE LAKE     PTCLDY    54  54 100 S3        29.98S
ORR            CLOUDY    57  54  88 CALM      29.96R
COOK           CLOUDY    57  55  94 CALM      29.98R
WALKER         FAIR      67  65  91 E3        29.91F
$$
MNZ012-019>021-037-211200-
   Northeast Minnesota

CITY           SKY/WX    TMP DP  RH WIND       PRES   REMARKS
DULUTH         CLOUDY    63  61  93 CALM      29.95S
ELY            CLOUDY    55  54  94 CALM      29.96F
HIBBING        CLOUDY    56  56 100 CALM      29.95F
EVELETH        CLOUDY    58  55  90 CALM      29.97S
DULUTH HARBOR  CLOUDY    66  64  94 CALM      29.94S
TWO HARBORS    CLOUDY    68  61  77 N5        29.93S
SILVER BAY     CLOUDY    59  57  94 CALM      29.93F
GRAND MARAIS     N/A     54  51  90 SW6       29.95S
G MARAIS ARPRT MOCLDY    57  48  72 N3        29.98F
$$
MNZ029>031-032-039>041-046>048-054>057-064-211200-
   West Central Minnesota

CITY           SKY/WX    TMP DP  RH WIND       PRES   REMARKS
FERGUS FALLS   CLOUDY    73  68  83 SE5       29.86R
WHEATON        CLOUDY    70  66  88 E5        29.84F FOG
MORRIS         MOCLDY    72  68  88 E8        29.82F
ALEXANDRIA     MOCLDY    68  67  96 E9        29.89F
ELBOW LAKE     FAIR      71  69  94 SE6       29.86F
WADENA         CLOUDY    68  66  94 SE8       29.87F
GLENWOOD       PTCLDY    66  66 100 E8        29.88F FOG
APPLETON       CLEAR     70  66  88 E7        29.81F
BENSON         PTCLDY    72  68  88 SE12G17   29.83F
ORTONVILLE     PTCLDY    70  66  88 NE3       29.83S FOG
MADISON        CLEAR     70  70 100 E5        29.82F FOG
WILLMAR        FAIR      72  70  94 E9        29.86F
$$
MNZ033>034-036-042>043-049>051-058-059-211200-
   Central Minnesota

CITY           SKY/WX    TMP DP  RH WIND       PRES   REMARKS
ST CLOUD       PTCLDY    63  63 100 E6        29.90S FOG
SAUK CENTRE    FAIR      66  65  97 E6        29.89F FOG
PAYNESVILLE    PTCLDY    66  65  97 NE6       29.89S FOG
AITKIN         CLOUDY    63  61  94 CALM      29.92S FOG
PINE RIVER     MOCLDY    64  64 100 CALM      29.95F FOG
BRAINERD       CLOUDY    64  63  96 S6        29.92F FOG
STAPLES        CLOUDY    66  64  94 SE9       29.89F
LONG PRAIRIE   FAIR      64  64 100 NW6       29.92F
LITTLE FALLS   PTCLDY    61  59  94 E3        29.90F FOG
LITCHFIELD     CLEAR     68  68 100 E7        29.87F FOG
BUFFALO        CLEAR     63  61  93 CALM      29.90F FOG
MAPLE LAKE     CLEAR     67  67  99 E3        29.90F FOG
HUTCHINSON     PTCLDY    67  67  99 E6        29.88F FOG
$$
MNZ037-044-045-052-053-211200-
   East Central Minnesota

CITY           SKY/WX    TMP DP  RH WIND       PRES   REMARKS
PRINCETON      FOG       63  61  94 CALM      29.92S VSB 1/2
MORA             N/A     63  63 100 CALM      29.94F FOG
CAMBRIDGE      CLOUDY    64  61  88 CALM      29.91S FOG
RUSH CITY      PTCLDY    63  62  95 CALM      29.93F FOG
MOOSE LAKE     CLOUDY    61  61 100 CALM      29.92F FOG
HINCKLEY       FAIR      63  63 100 CALM      29.94F FOG
CLOQUET        CLOUDY    63  61  94 CALM      29.95S
MCGREGOR       CLOUDY    63  63 100 CALM      29.94F
$$
MNZ071>073-080-081-089-090-097-098-211200-
   Southwest Minnesota

CITY           SKY/WX    TMP DP  RH WIND       PRES   REMARKS
MONTEVIDEO     CLEAR     68  68 100 S8        29.82F FOG
GRANITE FALLS  CLEAR     71  69  95 E8        29.83F
CANBY          FOG       68  67  97 CALM      29.82F VSB<1/4
MARSHALL       CLOUDY    69  69 100 SE10      29.84S FOG
REDWOOD FALLS  PTCLDY    70  67  90 E8        29.82F
OLIVIA         CLEAR     70  68  94 E9        29.84F
PIPESTONE      TSTM      73  70  88 SW10      29.84F
WINDOM         CLOUDY    75  68  78 SE15G21   29.84F
WORTHINGTON    MOCLDY    71  68  90 SE6       29.84F
JACKSON        PTCLDY    72  70  94 SE3       29.85F
TRACY          CLOUDY    70  70 100 S3        29.84F FOG
SLAYTON        CLOUDY    72  69  90 SE15      29.84F
$$
MNZ065>067-074>077-082>085-091>093-211200-
   South Central Minnesota

CITY           SKY/WX    TMP DP  RH WIND       PRES   REMARKS
MANKATO        PTCLDY    71  68  90 SE9       29.87F
NEW ULM        CLOUDY    70  66  88 SE5       29.87R
ST JAMES       TSTM      72  70  94 SW3       29.88R
FAIRMONT       CLOUDY    75  71  87 E8        29.88F THUNDER
GLENCOE        CLEAR     66  66 100 E7        29.87F
FARIBAULT      CLEAR     64  64 100 CALM      29.89F
OWATONNA       PTCLDY    66  64  94 E8        29.88F
WASECA         PTCLDY    68  63  83 E8        29.88F
ALBERT LEA     PTCLDY    72  68  88 SE7       29.88
$$
MNZ078>079-086>088-094>096-211200-
   Southeast Minnesota

CITY           SKY/WX    TMP DP  RH WIND       PRES   REMARKS
ROCHESTER      CLOUDY    66  65  96 E8        29.93F
RED WING       FOG       66  63  88 CALM      29.91F VSB 1/2
STANTON        CLEAR     64  63  96 E3        29.89F FOG
DODGE CENTER   CLEAR     64  63  94 E7        29.91F
WINONA         CLOUDY    70  68  94 SE6       29.93F FOG
AUSTIN         CLOUDY    70  66  88 E6        29.89F
PRESTON        CLOUDY    65  63  94 E3        29.94F FOG
$$
ABBREVIATIONS USED IN REMARKS
   TC - TEMPERATURES IN CELSIUS
  WCI - WIND CHILL INDEX
   HX - HEAT INDEX
  VSB - VISIBILITY
$$



USA.gov is the U.S. government's official web portal to all federal, state and local government web resources and services.